Location: Dziadowski
(50.3833°N, 20.0333°E)
Time: 08:50:26
(UTC+00:00)

Cosmos 1862 Rocket - Pass Details

Date: 18 January 2026
Orbit: 596 x 627 km, 82.5° (Epoch: 16 February)

Event Time Altitude Azimuth Distance (km) Brightness Sun altitude
Exits shadow 04:22:51 - 353° (N) 2,268 6.3 -20.0°
Reaches altitude 10° 04:23:35 10° 354° (N) 1,968 6.0 -19.8°
Maximum altitude 04:27:56 70° 78° (ENE) 646 3.7 -19.2°
Drops below altitude 10° 04:32:12 10° 163° (SSE) 1,937 6.4 -18.5°
Sets 04:34:24 0° 165° (SSE) 2,831 7.3 -18.1°
